| time (UTC) | temp F | wind direction | speed MPH | gust MPH | rain 1hr in | rain 24hr in | rain mn in | humidity % | barometer mb |
| 20260508140941 | 66 | 315 | 6.0 | 11.0 | 0.00 | 0.62 | 0.62 | 77 | 1011.4 |
| 20260508140739 | 65 | 292 | 5.0 | 9.0 | 0.00 | 0.62 | 0.62 | 77 | 1011.3 |
| 20260508140337 | 65 | 292 | 4.0 | 7.0 | 0.00 | 0.62 | 0.62 | 77 | 1011.3 |
| 20260508140138 | 65 | 292 | 6.0 | 11.0 | 0.00 | 0.62 | 0.62 | 77 | 1011.4 |
| 20260508135738 | 65 | 0 | 6.0 | 11.0 | 0.00 | 0.62 | 0.62 | 78 | 1011.4 |
| 20260508135545 | 65 | 315 | 6.0 | 8.0 | 0.00 | 0.62 | 0.62 | 78 | 1011.3 |
| 20260508135339 | 65 | 315 | 4.0 | 9.0 | 0.00 | 0.62 | 0.62 | 78 | 1011.4 |
| 20260508135138 | 65 | 315 | 7.0 | 13.0 | 0.00 | 0.62 | 0.62 | 78 | 1011.3 |
| 20260508134938 | 65 | 338 | 4.0 | 8.0 | 0.00 | 0.62 | 0.62 | 78 | 1011.3 |
| 20260508134740 | 65 | 315 | 4.0 | 7.0 | 0.00 | 0.62 | 0.62 | 78 | 1011.5 |
| 20260508134338 | 66 | 338 | 6.0 | 9.0 | 0.00 | 0.62 | 0.62 | 78 | 1011.4 |
| 20260508134138 | 66 | 315 | 8.0 | 13.0 | 0.00 | 0.62 | 0.62 | 78 | 1011.4 |
| 20260508133940 | 66 | 292 | 5.0 | 8.0 | 0.00 | 0.62 | 0.62 | 78 | 1011.2 |
| 20260508133738 | 66 | 315 | 5.0 | 8.0 | 0.00 | 0.62 | 0.62 | 78 | 1011.5 |
| 20260508133339 | 66 | 292 | 4.0 | 8.0 | 0.00 | 0.62 | 0.62 | 77 | 1011.4 |
| 20260508133138 | 67 | 292 | 6.0 | 11.0 | 0.00 | 0.62 | 0.62 | 76 | 1011.3 |
| 20260508132937 | 67 | 338 | 4.0 | 6.0 | 0.00 | 0.62 | 0.62 | 76 | 1011.1 |
| 20260508132740 | 67 | 315 | 7.0 | 13.0 | 0.00 | 0.62 | 0.62 | 75 | 1011.2 |
| 20260508132544 | 67 | 338 | 5.0 | 11.0 | 0.00 | 0.62 | 0.62 | 75 | 1011.4 |
| 20260508132338 | 67 | 292 | 7.0 | 11.0 | 0.00 | 0.62 | 0.62 | 75 | 1011.2 |
| 20260508132139 | 67 | 338 | 5.0 | 8.0 | 0.00 | 0.62 | 0.62 | 76 | 1011.2 |
| 20260508131939 | 67 | 338 | 5.0 | 8.0 | 0.00 | 0.62 | 0.62 | 76 | 1011.1 |
| 20260508131738 | 67 | 338 | 5.0 | 11.0 | 0.00 | 0.62 | 0.62 | 77 | 1011.1 |
| 20260508131545 | 67 | 315 | 3.0 | 7.0 | 0.00 | 0.62 | 0.62 | 77 | 1011.3 |
| 20260508131137 | 67 | 292 | 3.0 | 7.0 | 0.00 | 0.62 | 0.62 | 77 | 1011.2 |
| 20260508130737 | 67 | 315 | 3.0 | 6.0 | 0.00 | 0.62 | 0.62 | 77 | 1011.1 |
| 20260508130541 | 67 | 292 | 4.0 | 7.0 | 0.00 | 0.62 | 0.62 | 77 | 1011.1 |
| 20260508130338 | 67 | 292 | 4.0 | 6.0 | 0.00 | 0.62 | 0.62 | 77 | 1011.1 |
| 20260508130137 | 68 | 270 | 5.0 | 9.0 | 0.00 | 0.62 | 0.62 | 76 | 1011.1 |
| 20260508125937 | 68 | 68 | 4.0 | 6.0 | 0.00 | 0.62 | 0.62 | 76 | 1011.1 |
| 20260508125544 | 68 | 315 | 5.0 | 8.0 | 0.00 | 0.62 | 0.62 | 76 | 1011.2 |
| 20260508125337 | 68 | 315 | 5.0 | 9.0 | 0.00 | 0.62 | 0.62 | 76 | 1011.3 |
| 20260508125138 | 68 | 292 | 4.0 | 8.0 | 0.00 | 0.62 | 0.62 | 76 | 1011.1 |
| 20260508124938 | 68 | 338 | 4.0 | 8.0 | 0.00 | 0.62 | 0.62 | 76 | 1011.1 |
| 20260508124737 | 68 | 315 | 6.0 | 8.0 | 0.00 | 0.62 | 0.62 | 76 | 1011.2 |
| 20260508124337 | 67 | 292 | 4.0 | 6.0 | 0.00 | 0.62 | 0.62 | 78 | 1011.3 |
| 20260508124139 | 67 | 315 | 7.0 | 11.0 | 0.00 | 0.62 | 0.62 | 77 | 1011.2 |
| 20260508123939 | 67 | 315 | 7.0 | 11.0 | 0.00 | 0.62 | 0.62 | 77 | 1011.2 |
| 20260508123737 | 67 | 338 | 5.0 | 11.0 | 0.00 | 0.62 | 0.62 | 77 | 1011.2 |
| 20260508123541 | 67 | 292 | 4.0 | 8.0 | 0.00 | 0.62 | 0.62 | 78 | 1011.1 |
| 20260508123337 | 67 | 292 | 4.0 | 7.0 | 0.00 | 0.62 | 0.62 | 78 | 1011.3 |
| 20260508123138 | 67 | 292 | 4.0 | 6.0 | 0.00 | 0.62 | 0.62 | 78 | 1011.1 |
| 20260508122939 | 66 | 292 | 4.0 | 9.0 | 0.00 | 0.62 | 0.62 | 78 | 1011.2 |
| 20260508122738 | 66 | 0 | 6.0 | 9.0 | 0.00 | 0.62 | 0.62 | 78 | 1011.2 |
| 20260508122545 | 67 | 292 | 7.0 | 11.0 | 0.00 | 0.62 | 0.62 | 78 | 1011.2 |
| 20260508122137 | 67 | 292 | 6.0 | 9.0 | 0.00 | 0.62 | 0.62 | 79 | 1011.2 |
| 20260508121937 | 67 | 292 | 4.0 | 7.0 | 0.00 | 0.62 | 0.62 | 80 | 1011.2 |
| 20260508121738 | 67 | 315 | 4.0 | 7.0 | 1.07 | 0.62 | 0.62 | 80 | 1011.3 |
| 20260508121543 | 67 | 315 | 4.0 | 9.0 | 0.00 | 0.62 | 0.62 | 80 | 1011.2 |
| 20260508121339 | 67 | 292 | 5.0 | 9.0 | 0.00 | 0.62 | 0.62 | 80 | 1011.2 |
| 20260508121137 | 67 | 292 | 6.0 | 11.0 | 0.00 | 0.62 | 0.62 | 80 | 1011.2 |
| 20260508120737 | 66 | 338 | 7.0 | 13.0 | 0.00 | 0.62 | 0.62 | 81 | 1011.2 |
| 20260508120541 | 66 | 315 | 5.0 | 11.0 | 0.00 | 0.62 | 0.62 | 82 | 1011.3 |
| 20260508120339 | 66 | 315 | 5.0 | 11.0 | 0.00 | 0.62 | 0.62 | 82 | 1011.1 |
| 20260508120138 | 66 | 315 | 5.0 | 11.0 | 0.00 | 0.62 | 0.62 | 82 | 1011.2 |
| 20260508115937 | 66 | 292 | 4.0 | 8.0 | 0.00 | 0.62 | 0.62 | 83 | 1011.1 |
| 20260508115739 | 66 | 315 | 4.0 | 4.0 | 0.00 | 0.62 | 0.62 | 83 | 1011.1 |
| 20260508115542 | 66 | 315 | 5.0 | 8.0 | 0.00 | 0.62 | 0.62 | 83 | 1011.1 |
| 20260508115337 | 66 | 292 | 4.0 | 7.0 | 0.00 | 0.62 | 0.62 | 83 | 1011.3 |
| 20260508114547 | 66 | 315 | 5.0 | 7.0 | 0.00 | 0.62 | 0.62 | 83 | 1011.0 |
| 20260508114337 | 66 | 338 | 2.0 | 4.0 | 0.00 | 0.62 | 0.62 | 84 | 1011.1 |
| 20260508114137 | 66 | 292 | 4.0 | 6.0 | 0.00 | 0.62 | 0.62 | 84 | 1011.2 |
| 20260508113938 | 65 | 0 | 4.0 | 6.0 | 0.00 | 0.62 | 0.62 | 84 | 1011.2 |
| 20260508113737 | 65 | 292 | 4.0 | 6.0 | 0.00 | 0.62 | 0.62 | 84 | 1011.0 |
| 20260508113541 | 65 | 315 | 8.0 | 11.0 | 0.00 | 0.62 | 0.62 | 84 | 1011.2 |
| 20260508113337 | 65 | 292 | 5.0 | 8.0 | 0.00 | 0.62 | 0.62 | 84 | 1011.2 |
| 20260508112938 | 65 | 292 | 4.0 | 7.0 | 0.00 | 0.62 | 0.62 | 85 | 1011.2 |
| 20260508112737 | 65 | 292 | 6.0 | 9.0 | 0.00 | 0.62 | 0.62 | 85 | 1011.2 |
| 20260508112543 | 65 | 292 | 6.0 | 9.0 | 0.00 | 0.62 | 0.62 | 86 | 1011.2 |
| 20260508112336 | 64 | 270 | 4.0 | 7.0 | 0.00 | 0.62 | 0.62 | 87 | 1011.1 |
| 20260508112137 | 64 | 292 | 3.0 | 6.0 | 0.00 | 0.62 | 0.62 | 88 | 1011.0 |
| 20260508111937 | 53 | 292 | 7.0 | 8.0 | 0.00 | 0.00 | 0.00 | 54 | 1020.7 |
| 20260508111738 | 64 | 292 | 6.0 | 9.0 | 0.00 | 0.62 | 0.62 | 89 | 1011.1 |
| 20260508111545 | 64 | 315 | 4.0 | 7.0 | 0.00 | 0.62 | 0.62 | 90 | 1010.9 |
| 20260508111338 | 63 | 315 | 6.0 | 9.0 | 0.00 | 0.62 | 0.62 | 91 | 1010.9 |
| 20260508111137 | 63 | 292 | 4.0 | 8.0 | 0.00 | 0.62 | 0.62 | 92 | 1010.8 |
| 20260508110939 | 63 | 315 | 5.0 | 8.0 | 0.00 | 0.62 | 0.62 | 92 | 1010.9 |
| 20260508110738 | 63 | 292 | 3.0 | 4.0 | 0.00 | 0.62 | 0.62 | 93 | 1010.9 |
| 20260508110541 | 63 | 315 | 4.0 | 7.0 | 0.00 | 0.62 | 0.62 | 93 | 1011.0 |
| 20260508110337 | 63 | 338 | 4.0 | 6.0 | 0.00 | 0.62 | 0.62 | 93 | 1011.0 |
| 20260508110138 | 63 | 338 | 3.0 | 7.0 | 0.00 | 0.62 | 0.62 | 93 | 1011.0 |
| 20260508105739 | 63 | 315 | 2.0 | 6.0 | 0.00 | 0.62 | 0.62 | 93 | 1011.0 |
| 20260508105545 | 62 | 315 | 4.0 | 6.0 | 0.00 | 0.62 | 0.62 | 94 | 1011.0 |
| 20260508105338 | 62 | 315 | 4.0 | 8.0 | 0.00 | 0.62 | 0.62 | 94 | 1011.0 |
| 20260508105138 | 63 | 292 | 3.0 | 7.0 | 0.00 | 0.62 | 0.62 | 94 | 1011.2 |
| 20260508104738 | 62 | 338 | 4.0 | 7.0 | 0.00 | 0.62 | 0.62 | 94 | 1011.1 |
| 20260508104545 | 62 | 292 | 4.0 | 7.0 | 0.00 | 0.62 | 0.62 | 94 | 1011.0 |
| 20260508104337 | 62 | 338 | 3.0 | 4.0 | 0.00 | 0.62 | 0.62 | 94 | 1011.0 |
| 20260508104139 | 62 | 338 | 4.0 | 8.0 | 0.00 | 0.62 | 0.62 | 94 | 1011.0 |
| 20260508103940 | 62 | 315 | 4.0 | 6.0 | 0.00 | 0.62 | 0.62 | 94 | 1011.1 |
| 20260508103541 | 62 | 338 | 4.0 | 6.0 | 0.00 | 0.62 | 0.62 | 94 | 1011.3 |
| 20260508103337 | 63 | 22 | 2.0 | 4.0 | 0.00 | 0.62 | 0.62 | 94 | 1011.2 |
| 20260508103138 | 62 | 292 | 2.0 | 4.0 | 0.00 | 0.62 | 0.62 | 94 | 1011.1 |
| 20260508102937 | 62 | 45 | 2.0 | 4.0 | 0.00 | 0.62 | 0.62 | 94 | 1011.2 |
| 20260508102738 | 63 | 315 | 2.0 | 4.0 | 0.00 | 0.62 | 0.62 | 94 | 1011.3 |
| 20260508102543 | 63 | 315 | 2.0 | 4.0 | 0.00 | 0.62 | 0.62 | 95 | 1011.2 |
| 20260508102338 | 62 | 315 | 3.0 | 4.0 | 0.00 | 0.62 | 0.62 | 95 | 1011.3 |
| 20260508102137 | 62 | 292 | 2.0 | 4.0 | 0.00 | 0.62 | 0.62 | 95 | 1011.4 |
| 20260508101738 | 62 | 22 | 6.0 | 11.0 | 0.00 | 0.62 | 0.62 | 95 | 1011.4 |
| 20260508101543 | 62 | 315 | 6.0 | 9.0 | 0.00 | 0.62 | 0.62 | 95 | 1011.4 |
| 20260508101337 | 63 | 315 | 6.0 | 11.0 | 0.00 | 0.62 | 0.62 | 95 | 1011.5 |
| 20260508101138 | 63 | 0 | 3.0 | 4.0 | 0.01 | 0.62 | 0.62 | 95 | 1011.3 |
| 20260508100939 | 63 | 315 | 6.0 | 8.0 | 0.01 | 0.62 | 0.62 | 95 | 1011.5 |
| 20260508100738 | 63 | 315 | 3.0 | 7.0 | 0.01 | 0.62 | 0.62 | 95 | 1011.4 |
| 20260508100541 | 63 | 315 | 3.0 | 8.0 | 0.01 | 0.62 | 0.62 | 95 | 1011.3 |
| 20260508100338 | 63 | 315 | 3.0 | 6.0 | 0.01 | 0.62 | 0.62 | 95 | 1011.2 |
| 20260508100137 | 63 | 315 | 4.0 | 7.0 | 0.02 | 0.62 | 0.62 | 95 | 1011.4 |
| 20260508095939 | 63 | 338 | 3.0 | 7.0 | 0.02 | 0.62 | 0.62 | 95 | 1011.2 |
| 20260508095738 | 63 | 315 | 2.0 | 6.0 | 0.02 | 0.62 | 0.62 | 95 | 1011.5 |
| 20260508095544 | 62 | 315 | 4.0 | 6.0 | 0.02 | 0.62 | 0.62 | 95 | 1011.3 |
| 20260508095337 | 62 | 292 | 4.0 | 7.0 | 0.03 | 0.62 | 0.62 | 95 | 1011.4 |
| 20260508094937 | 62 | 0 | 4.0 | 11.0 | 0.03 | 0.62 | 0.62 | 95 | 1011.2 |
| 20260508094739 | 62 | 338 | 5.0 | 8.0 | 0.03 | 0.62 | 0.62 | 95 | 1011.3 |
| 20260508094545 | 62 | 315 | 6.0 | 9.0 | 0.04 | 0.62 | 0.62 | 95 | 1011.2 |
| 20260508094338 | 62 | 315 | 4.0 | 8.0 | 0.04 | 0.62 | 0.62 | 95 | 1011.3 |
| 20260508094137 | 62 | 292 | 5.0 | 8.0 | 0.04 | 0.62 | 0.62 | 95 | 1011.4 |
| 20260508093737 | 62 | 315 | 5.0 | 8.0 | 0.05 | 0.62 | 0.62 | 95 | 1011.3 |
| 20260508093541 | 62 | 292 | 4.0 | 7.0 | 0.05 | 0.62 | 0.62 | 95 | 1011.3 |
| 20260508093337 | 62 | 292 | 5.0 | 7.0 | 0.05 | 0.62 | 0.62 | 95 | 1011.2 |
| 20260508093137 | 61 | 315 | 3.0 | 6.0 | 0.05 | 0.62 | 0.62 | 95 | 1011.3 |
| 20260508092737 | 61 | 292 | 4.0 | 6.0 | 0.07 | 0.62 | 0.62 | 95 | 1011.5 |
| 20260508092543 | 61 | 315 | 3.0 | 4.0 | 0.08 | 0.62 | 0.62 | 95 | 1011.3 |
| 20260508092337 | 61 | 315 | 2.0 | 4.0 | 0.08 | 0.62 | 0.62 | 95 | 1011.2 |
| 20260508092138 | 61 | 338 | 4.0 | 6.0 | 0.09 | 0.62 | 0.62 | 95 | 1011.3 |
| 20260508091938 | 60 | 292 | 2.0 | 4.0 | 0.09 | 0.62 | 0.62 | 95 | 1011.3 |
| 20260508091737 | 60 | 338 | 3.0 | 6.0 | 0.09 | 0.62 | 0.62 | 95 | 1011.3 |
| 20260508091543 | 61 | 315 | 4.0 | 6.0 | 0.09 | 0.62 | 0.62 | 95 | 1011.6 |
| 20260508091338 | 61 | 338 | 2.0 | 4.0 | 0.09 | 0.61 | 0.61 | 95 | 1011.3 |
| 20260508091137 | 61 | 292 | 1.0 | 2.0 | 0.09 | 0.61 | 0.61 | 95 | 1011.3 |
| 20260508090939 | 60 | 315 | 2.0 | 2.0 | 0.10 | 0.61 | 0.61 | 95 | 1011.5 |
| 20260508090541 | 60 | 292 | 3.0 | 4.0 | 0.11 | 0.61 | 0.61 | 95 | 1011.4 |
| 20260508090137 | 60 | 292 | 2.0 | 4.0 | 0.11 | 0.60 | 0.60 | 95 | 1011.4 |
| 20260508085937 | 60 | 315 | 2.0 | 4.0 | 0.11 | 0.60 | 0.60 | 95 | 1011.6 |
| 20260508085337 | 60 | 292 | 4.0 | 7.0 | 0.12 | 0.59 | 0.59 | 95 | 1011.3 |
| 20260508085138 | 60 | 292 | 2.0 | 4.0 | 0.14 | 0.59 | 0.59 | 95 | 1011.5 |
| 20260508084937 | 60 | 292 | 3.0 | 4.0 | 0.15 | 0.59 | 0.59 | 95 | 1011.5 |
| 20260508084738 | 60 | 315 | 2.0 | 4.0 | 0.14 | 0.57 | 0.57 | 95 | 1011.4 |
| 20260508084543 | 60 | 315 | 4.0 | 4.0 | 0.16 | 0.57 | 0.57 | 95 | 1011.4 |
| 20260508084337 | 60 | 315 | 2.0 | 4.0 | 0.16 | 0.57 | 0.57 | 95 | 1011.5 |
| 20260508084138 | 60 | 315 | 2.0 | 2.0 | 0.17 | 0.57 | 0.57 | 95 | 1011.5 |
| 20260508083938 | 60 | 315 | 3.0 | 4.0 | 0.17 | 0.56 | 0.56 | 95 | 1011.4 |
| 20260508083543 | 60 | 292 | 5.0 | 8.0 | 0.20 | 0.56 | 0.56 | 95 | 1011.6 |
| 20260508083337 | 60 | 292 | 4.0 | 6.0 | 0.21 | 0.56 | 0.56 | 95 | 1011.6 |
| 20260508083137 | 60 | 292 | 4.0 | 6.0 | 0.23 | 0.55 | 0.55 | 95 | 1011.4 |
| 20260508082938 | 60 | 270 | 2.0 | 4.0 | 0.24 | 0.55 | 0.55 | 95 | 1011.5 |
| 20260508082737 | 60 | 315 | 4.0 | 6.0 | 0.23 | 0.54 | 0.54 | 95 | 1011.4 |
| 20260508082544 | 60 | 292 | 4.0 | 7.0 | 0.23 | 0.54 | 0.54 | 95 | 1011.5 |
| 20260508082337 | 60 | 292 | 2.0 | 2.0 | 0.23 | 0.53 | 0.53 | 95 | 1011.4 |
| 20260508081938 | 60 | 315 | 2.0 | 2.0 | 0.24 | 0.53 | 0.53 | 95 | 1011.3 |
| 20260508081738 | 60 | 315 | 2.0 | 4.0 | 0.98 | 0.53 | 0.53 | 95 | 1011.4 |
| 20260508081337 | 60 | 315 | 1.0 | 2.0 | 0.28 | 0.51 | 0.51 | 95 | 1011.2 |
| 20260508081138 | 60 | 315 | 2.0 | 4.0 | 0.28 | 0.50 | 0.50 | 95 | 1011.3 |
| 20260508080939 | 60 | 292 | 2.0 | 2.0 | 0.29 | 0.49 | 0.49 | 95 | 1011.1 |
| 20260508080737 | 60 | 315 | 2.0 | 4.0 | 0.30 | 0.49 | 0.49 | 95 | 1011.1 |
| 20260508080542 | 60 | 292 | 2.0 | 4.0 | 0.29 | 0.48 | 0.48 | 95 | 1011.3 |
| 20260508080337 | 60 | 292 | 2.0 | 4.0 | 0.30 | 0.48 | 0.48 | 95 | 1011.3 |
| 20260508080137 | 60 | 292 | 2.0 | 4.0 | 0.30 | 0.48 | 0.48 | 95 | 1011.3 |
| 20260508075937 | 60 | 292 | 2.0 | 4.0 | 0.29 | 0.47 | 0.47 | 95 | 1011.2 |
| 20260508075739 | 60 | 292 | 2.0 | 4.0 | 0.30 | 0.47 | 0.47 | 95 | 1011.3 |
| 20260508075544 | 60 | 292 | 2.0 | 4.0 | 0.29 | 0.46 | 0.46 | 95 | 1011.3 |
| 20260508075336 | 60 | 315 | 2.0 | 4.0 | 0.29 | 0.44 | 0.44 | 95 | 1011.2 |
| 20260508075137 | 60 | 315 | 2.0 | 4.0 | 0.28 | 0.43 | 0.43 | 95 | 1011.2 |
| 20260508074939 | 60 | 315 | 3.0 | 6.0 | 0.29 | 0.43 | 0.43 | 95 | 1011.1 |
| 20260508074740 | 60 | 315 | 2.0 | 2.0 | 0.27 | 0.41 | 0.41 | 95 | 1011.2 |
| 20260508074543 | 60 | 315 | 2.0 | 4.0 | 0.28 | 0.41 | 0.41 | 95 | 1011.0 |
| 20260508074139 | 60 | 22 | 2.0 | 4.0 | 0.27 | 0.38 | 0.38 | 95 | 1011.1 |
| 20260508073940 | 60 | 338 | 2.0 | 4.0 | 0.25 | 0.37 | 0.37 | 95 | 1010.9 |
| 20260508073738 | 60 | 0 | 2.0 | 4.0 | 0.25 | 0.36 | 0.36 | 95 | 1011.0 |
| 20260508073542 | 60 | 338 | 1.0 | 2.0 | 0.24 | 0.35 | 0.35 | 95 | 1011.0 |
| 20260508073137 | 60 | 315 | 2.0 | 2.0 | 0.20 | 0.30 | 0.30 | 95 | 1011.1 |
| 20260508072938 | 60 | 315 | 2.0 | 4.0 | 0.20 | 0.30 | 0.30 | 95 | 1011.1 |
| 20260508072737 | 60 | 315 | 2.0 | 2.0 | 0.20 | 0.30 | 0.30 | 95 | 1011.0 |
| 20260508072544 | 60 | 315 | 2.0 | 2.0 | 0.20 | 0.29 | 0.29 | 95 | 1011.2 |
| 20260508072337 | 60 | 292 | 2.0 | 4.0 | 0.18 | 0.28 | 0.28 | 95 | 1011.0 |
| 20260508072137 | 60 | 315 | 2.0 | 4.0 | 0.18 | 0.28 | 0.28 | 95 | 1011.0 |
| 20260508071738 | 60 | 292 | 1.0 | 2.0 | 0.15 | 0.24 | 0.24 | 94 | 1010.9 |
| 20260508071544 | 60 | 0 | 1.0 | 4.0 | 0.14 | 0.23 | 0.23 | 94 | 1011.0 |
| 20260508071136 | 60 | 45 | 2.0 | 4.0 | 0.10 | 0.20 | 0.20 | 94 | 1011.1 |
| 20260508070939 | 60 | 338 | 2.0 | 4.0 | 0.10 | 0.18 | 0.18 | 94 | 1010.9 |
| 20260508070337 | 60 | 0 | 1.0 | 4.0 | 0.09 | 0.17 | 0.17 | 94 | 1010.9 |
| 20260508070137 | 60 | 315 | 1.0 | 2.0 | 0.09 | 0.17 | 0.17 | 94 | 1010.7 |
| 20260508065937 | 60 | 292 | 2.0 | 2.0 | 0.08 | 0.16 | 0.16 | 94 | 1010.9 |
| 20260508065738 | 60 | 45 | 2.0 | 4.0 | 0.08 | 0.16 | 0.16 | 94 | 1010.9 |
| 20260508065545 | 60 | 68 | 2.0 | 2.0 | 0.07 | 0.15 | 0.15 | 94 | 1010.9 |
| 20260508065336 | 60 | 338 | 2.0 | 4.0 | 0.08 | 0.15 | 0.15 | 94 | 1010.9 |
| 20260508065138 | 60 | 45 | 3.0 | 6.0 | 0.07 | 0.14 | 0.14 | 94 | 1010.9 |
| 20260508064938 | 60 | 22 | 3.0 | 6.0 | 0.07 | 0.14 | 0.14 | 94 | 1010.8 |
| 20260508064737 | 60 | 338 | 3.0 | 7.0 | 0.05 | 0.12 | 0.12 | 94 | 1010.8 |
| 20260508064543 | 60 | 0 | 2.0 | 4.0 | 0.07 | 0.12 | 0.12 | 94 | 1010.8 |
| 20260508064337 | 60 | 90 | 2.0 | 4.0 | 0.05 | 0.11 | 0.11 | 94 | 1010.8 |
| 20260508063939 | 60 | 292 | 2.0 | 4.0 | 0.05 | 0.10 | 0.10 | 94 | 1010.8 |
| 20260508063737 | 60 | 0 | 4.0 | 7.0 | 0.05 | 0.10 | 0.10 | 94 | 1010.8 |
| 20260508063542 | 61 | 45 | 4.0 | 7.0 | 0.05 | 0.10 | 0.10 | 94 | 1010.7 |
| 20260508063337 | 61 | 0 | 2.0 | 4.0 | 0.05 | 0.10 | 0.10 | 94 | 1010.7 |
| 20260508063136 | 61 | 338 | 2.0 | 4.0 | 0.05 | 0.10 | 0.10 | 94 | 1010.7 |
| 20260508062937 | 61 | 22 | 4.0 | 6.0 | 0.05 | 0.10 | 0.10 | 94 | 1010.9 |
| 20260508062738 | 61 | 0 | 2.0 | 2.0 | 0.04 | 0.09 | 0.09 | 94 | 1010.8 |
| 20260508062545 | 61 | 45 | 4.0 | 6.0 | 0.04 | 0.09 | 0.09 | 94 | 1010.7 |
| 20260508062336 | 61 | 292 | 2.0 | 4.0 | 0.04 | 0.09 | 0.09 | 94 | 1010.8 |
| 20260508061937 | 61 | 338 | 2.0 | 4.0 | 0.04 | 0.09 | 0.09 | 94 | 1010.6 |
| 20260508061739 | 61 | 22 | 2.0 | 4.0 | 0.04 | 0.09 | 0.09 | 94 | 1010.6 |
| 20260508061543 | 61 | 315 | 1.0 | 2.0 | 0.04 | 0.09 | 0.09 | 94 | 1010.7 |
| 20260508061337 | 61 | 338 | 1.0 | 2.0 | 0.04 | 0.09 | 0.09 | 94 | 1010.8 |
| 20260508061137 | 61 | 45 | 4.0 | 4.0 | 0.03 | 0.08 | 0.08 | 94 | 1010.7 |
| 20260508060737 | 61 | 315 | 1.0 | 2.0 | 0.03 | 0.08 | 0.08 | 94 | 1010.7 |
| 20260508060540 | 61 | 0 | 1.0 | 2.0 | 0.03 | 0.08 | 0.08 | 94 | 1010.8 |
| 20260508060336 | 61 | 0 | 1.0 | 2.0 | 0.03 | 0.08 | 0.08 | 94 | 1010.7 |
| 20260508060137 | 61 | 0 | 1.0 | 2.0 | 0.03 | 0.08 | 0.08 | 94 | 1010.7 |
| 20260508055737 | 61 | 45 | 1.0 | 4.0 | 0.03 | 0.08 | 0.08 | 94 | 1010.7 |
| 20260508055545 | 61 | 0 | 1.0 | 2.0 | 0.02 | 0.07 | 0.07 | 94 | 1010.8 |
| 20260508055349 | 61 | 22 | 2.0 | 4.0 | 0.02 | 0.07 | 0.07 | 94 | 1010.8 |
| 20260508055138 | 61 | 315 | 2.0 | 2.0 | 0.02 | 0.07 | 0.07 | 94 | 1010.7 |
| 20260508054940 | 61 | 270 | 2.0 | 4.0 | 0.02 | 0.07 | 0.07 | 94 | 1010.6 |
| 20260508054742 | 61 | 22 | 1.0 | 2.0 | 0.01 | 0.05 | 0.05 | 94 | 1010.7 |
| 20260508054544 | 61 | 338 | 0.0 | 2.0 | 0.01 | 0.05 | 0.05 | 94 | 1010.6 |
| 20260508054337 | 61 | 315 | 1.0 | 2.0 | 0.00 | 0.04 | 0.04 | 94 | 1010.6 |
| 20260508054138 | 61 | 338 | 1.0 | 2.0 | 0.00 | 0.04 | 0.04 | 94 | 1010.5 |
| 20260508053939 | 61 | 315 | 2.0 | 2.0 | 0.00 | 0.04 | 0.04 | 94 | 1010.6 |
| 20260508053738 | 61 | 0 | 0.0 | 2.0 | 0.00 | 0.04 | 0.04 | 94 | 1010.5 |
| 20260508053540 | 61 | 315 | 1.0 | 2.0 | 0.00 | 0.04 | 0.04 | 94 | 1010.7 |
| 20260508053337 | 61 | 338 | 2.0 | 4.0 | 0.00 | 0.04 | 0.04 | 94 | 1010.6 |
| 20260508053138 | 61 | 0 | 2.0 | 2.0 | 0.00 | 0.04 | 0.04 | 94 | 1010.3 |
| 20260508052938 | 62 | 22 | 1.0 | 2.0 | 0.00 | 0.04 | 0.04 | 94 | 1010.5 |
| 20260508052737 | 62 | 338 | 1.0 | 2.0 | 0.00 | 0.04 | 0.04 | 94 | 1010.7 |
| 20260508052544 | 62 | 338 | 1.0 | 4.0 | 0.00 | 0.04 | 0.04 | 94 | 1010.3 |
| 20260508052337 | 62 | 0 | 1.0 | 2.0 | 0.00 | 0.04 | 0.04 | 94 | 1010.4 |
| 20260508052139 | 62 | 0 | 1.0 | 2.0 | 0.00 | 0.04 | 0.04 | 94 | 1010.4 |
| 20260508051938 | 62 | 22 | 2.0 | 2.0 | 0.01 | 0.04 | 0.04 | 94 | 1010.3 |
| 20260508051738 | 62 | 22 | 3.0 | 4.0 | 0.49 | 0.04 | 0.04 | 94 | 1010.4 |
| 20260508051543 | 62 | 22 | 0.0 | 2.0 | 0.01 | 0.04 | 0.04 | 94 | 1010.5 |
| 20260508051337 | 62 | 0 | 1.0 | 2.0 | 0.01 | 0.04 | 0.04 | 94 | 1010.4 |
| 20260508051140 | 62 | 45 | 1.0 | 2.0 | 0.01 | 0.04 | 0.04 | 94 | 1010.5 |
| 20260508050939 | 62 | 338 | 2.0 | 2.0 | 0.02 | 0.04 | 0.04 | 93 | 1010.4 |
| 20260508050737 | 62 | 45 | 3.0 | 4.0 | 0.02 | 0.04 | 0.04 | 93 | 1010.4 |
| 20260508050543 | 61 | 22 | 2.0 | 4.0 | 0.02 | 0.04 | 0.04 | 93 | 1010.3 |
| 20260508050339 | 61 | 45 | 2.0 | 2.0 | 0.02 | 0.04 | 0.04 | 93 | 1010.3 |
| 20260508050138 | 62 | 22 | 2.0 | 2.0 | 0.02 | 0.04 | 0.04 | 93 | 1010.4 |
| 20260508045338 | 62 | 22 | 2.0 | 2.0 | 0.02 | 0.04 | 0.04 | 93 | 1010.4 |
| 20260508045137 | 62 | 68 | 2.0 | 4.0 | 0.02 | 0.04 | 0.04 | 93 | 1010.5 |
| 20260508044938 | 62 | 68 | 2.0 | 2.0 | 0.02 | 0.04 | 0.04 | 93 | 1010.4 |
| 20260508044737 | 62 | 45 | 2.0 | 4.0 | 0.02 | 0.04 | 0.04 | 93 | 1010.3 |
| 20260508044545 | 62 | 45 | 2.0 | 2.0 | 0.02 | 0.04 | 0.04 | 93 | 1010.4 |
| 20260508044338 | 62 | 68 | 2.0 | 4.0 | 0.02 | 0.04 | 0.04 | 93 | 1010.3 |
| 20260508044141 | 61 | 68 | 2.0 | 4.0 | 0.02 | 0.04 | 0.04 | 93 | 1010.4 |
| 20260508043939 | 61 | 68 | 2.0 | 4.0 | 0.02 | 0.04 | 0.04 | 93 | 1010.4 |
| 20260508043738 | 61 | 22 | 2.0 | 2.0 | 0.02 | 0.04 | 0.04 | 93 | 1010.2 |
| 20260508043540 | 61 | 68 | 2.0 | 4.0 | 0.03 | 0.04 | 0.04 | 93 | 1010.3 |
| 20260508043338 | 61 | 22 | 2.0 | 4.0 | 0.03 | 0.04 | 0.04 | 93 | 1010.3 |
| 20260508043137 | 61 | 45 | 2.0 | 2.0 | 0.03 | 0.04 | 0.04 | 93 | 1010.3 |
| 20260508042736 | 61 | 45 | 4.0 | 4.0 | 0.03 | 0.04 | 0.04 | 93 | 1010.2 |
| 20260508042549 | 61 | 68 | 4.0 | 7.0 | 0.03 | 0.04 | 0.04 | 93 | 1010.3 |
| 20260508042338 | 61 | 68 | 4.0 | 6.0 | 0.03 | 0.04 | 0.04 | 93 | 1010.3 |
| 20260508042138 | 61 | 90 | 4.0 | 6.0 | 0.02 | 0.03 | 0.03 | 93 | 1010.1 |
| 20260508041739 | 62 | 45 | 3.0 | 4.0 | 0.02 | 0.03 | 0.03 | 93 | 1010.4 |
| 20260508041546 | 62 | 90 | 2.0 | 4.0 | 0.02 | 0.03 | 0.03 | 93 | 1010.1 |
| 20260508041346 | 62 | 68 | 2.0 | 4.0 | 0.02 | 0.03 | 0.03 | 93 | 1010.4 |
| 20260508041137 | 62 | 68 | 3.0 | 4.0 | 0.02 | 0.02 | 0.02 | 93 | 1010.2 |
| 20260508040939 | 62 | 45 | 4.0 | 6.0 | 0.02 | 0.02 | 0.02 | 93 | 1010.4 |
| 20260508040738 | 62 | 90 | 4.0 | 8.0 | 0.02 | 0.02 | 0.02 | 93 | 1010.1 |
| 20260508040541 | 62 | 68 | 2.0 | 4.0 | 0.02 | 0.02 | 0.02 | 93 | 1010.3 |
| 20260508040336 | 62 | 68 | 3.0 | 6.0 | 0.02 | 0.02 | 0.02 | 93 | 1010.3 |
| 20260508035737 | 62 | 68 | 3.0 | 6.0 | 0.02 | 0.02 | 0.02 | 92 | 1010.2 |
| 20260508035545 | 62 | 68 | 2.0 | 4.0 | 0.02 | 0.02 | 0.02 | 92 | 1010.0 |
| 20260508035138 | 62 | 90 | 3.0 | 4.0 | 0.02 | 0.02 | 0.02 | 92 | 1010.1 |
| 20260508034937 | 62 | 112 | 3.0 | 6.0 | 0.02 | 0.02 | 0.02 | 92 | 1010.1 |
| 20260508034737 | 62 | 45 | 4.0 | 6.0 | 0.47 | 0.02 | 0.02 | 92 | 1010.1 |
| 20260508034544 | 62 | 90 | 2.0 | 4.0 | 0.02 | 0.02 | 0.02 | 92 | 1010.0 |
| 20260508034338 | 62 | 90 | 4.0 | 6.0 | 0.02 | 0.02 | 0.02 | 92 | 1010.3 |
| 20260508034137 | 62 | 90 | 3.0 | 4.0 | 0.02 | 0.02 | 0.02 | 92 | 1010.3 |
| 20260508033738 | 62 | 68 | 4.0 | 7.0 | 0.01 | 0.01 | 0.01 | 92 | 1010.2 |
| 20260508033540 | 62 | 90 | 4.0 | 7.0 | 0.01 | 0.01 | 0.01 | 91 | 1010.0 |
| 20260508033338 | 62 | 68 | 4.0 | 7.0 | 0.01 | 0.01 | 0.01 | 91 | 1010.1 |
| 20260508033137 | 63 | 68 | 4.0 | 6.0 | 0.01 | 0.01 | 0.01 | 91 | 1010.0 |
| 20260508032739 | 63 | 68 | 4.0 | 6.0 | 0.01 | 0.01 | 0.01 | 91 | 1010.2 |
| 20260508032544 | 63 | 68 | 3.0 | 4.0 | 0.01 | 0.01 | 0.01 | 91 | 1010.0 |
| 20260508032138 | 63 | 68 | 4.0 | 7.0 | 0.01 | 0.01 | 0.01 | 90 | 1009.9 |
| 20260508031938 | 63 | 68 | 4.0 | 7.0 | 0.01 | 0.01 | 0.01 | 90 | 1010.2 |
| 20260508031737 | 63 | 68 | 4.0 | 6.0 | 0.01 | 0.01 | 0.01 | 90 | 1010.0 |
| 20260508031544 | 63 | 68 | 3.0 | 6.0 | 0.01 | 0.01 | 0.01 | 90 | 1010.3 |
| 20260508031137 | 63 | 68 | 4.0 | 6.0 | 0.00 | 0.00 | 0.00 | 89 | 1010.2 |
| 20260508030940 | 63 | 90 | 3.0 | 4.0 | 0.00 | 0.00 | 0.00 | 89 | 1010.1 |
| 20260508030737 | 63 | 90 | 4.0 | 4.0 | 0.00 | 0.00 | 0.00 | 89 | 1010.2 |
| 20260508030541 | 63 | 68 | 4.0 | 6.0 | 0.00 | 0.00 | 0.00 | 89 | 1010.3 |
| 20260508030338 | 63 | 45 | 4.0 | 6.0 | 0.00 | 0.00 | 0.00 | 88 | 1010.3 |
| 20260508030138 | 63 | 68 | 2.0 | 4.0 | 0.00 | 0.00 | 0.00 | 88 | 1010.3 |
| 20260508025938 | 63 | 68 | 4.0 | 7.0 | 0.00 | 0.00 | 0.00 | 88 | 1010.2 |
| 20260508025543 | 63 | 68 | 3.0 | 7.0 | 0.00 | 0.00 | 0.00 | 88 | 1010.4 |
| 20260508025138 | 63 | 90 | 3.0 | 7.0 | 0.00 | 0.00 | 0.00 | 88 | 1010.4 |
| 20260508024938 | 64 | 315 | 4.0 | 9.0 | 0.00 | 0.00 | 0.00 | 48 | 1017.4 |
| 20260508024738 | 63 | 90 | 2.0 | 4.0 | 0.44 | 0.00 | 0.00 | 88 | 1010.4 |
| 20260508024545 | 63 | 68 | 3.0 | 4.0 | 0.00 | 0.00 | 0.00 | 88 | 1010.3 |
| 20260508024336 | 63 | 68 | 2.0 | 4.0 | 0.00 | 0.00 | 0.00 | 88 | 1010.4 |
| 20260508024137 | 63 | 90 | 4.0 | 8.0 | 0.00 | 0.00 | 0.00 | 88 | 1010.5 |
| 20260508023738 | 63 | 68 | 3.0 | 7.0 | 0.00 | 0.00 | 0.00 | 87 | 1010.4 |
| 20260508023542 | 63 | 112 | 4.0 | 6.0 | 0.00 | 0.00 | 0.00 | 87 | 1010.3 |
| 20260508023338 | 63 | 90 | 4.0 | 4.0 | 0.00 | 0.00 | 0.00 | 87 | 1010.5 |
| 20260508023138 | 63 | 68 | 3.0 | 7.0 | 0.00 | 0.00 | 0.00 | 87 | 1010.4 |
| 20260508022937 | 63 | 90 | 4.0 | 6.0 | 0.00 | 0.00 | 0.00 | 87 | 1010.5 |
| 20260508022737 | 63 | 112 | 3.0 | 4.0 | 0.00 | 0.01 | 0.00 | 87 | 1010.4 |
| 20260508022545 | 63 | 90 | 4.0 | 7.0 | 0.00 | 0.01 | 0.00 | 87 | 1010.4 |
| 20260508022137 | 63 | 90 | 3.0 | 4.0 | 0.00 | 0.01 | 0.00 | 87 | 1010.4 |
| 20260508021937 | 63 | 112 | 4.0 | 7.0 | 0.00 | 0.01 | 0.00 | 87 | 1010.5 |
| 20260508021737 | 63 | 90 | 4.0 | 7.0 | 0.00 | 0.01 | 0.00 | 87 | 1010.4 |
| 20260508021137 | 63 | 22 | 3.0 | 7.0 | 0.00 | 0.01 | 0.00 | 87 | 1010.6 |
| 20260508020938 | 63 | 112 | 4.0 | 7.0 | 0.00 | 0.01 | 0.00 | 87 | 1010.7 |
| 20260508020737 | 63 | 112 | 4.0 | 6.0 | 0.00 | 0.01 | 0.00 | 87 | 1010.7 |
| 20260508020542 | 63 | 68 | 4.0 | 4.0 | 0.00 | 0.01 | 0.00 | 87 | 1010.7 |
| 20260508020337 | 63 | 90 | 4.0 | 6.0 | 0.00 | 0.01 | 0.00 | 87 | 1010.7 |
| 20260508020138 | 63 | 90 | 4.0 | 6.0 | 0.00 | 0.01 | 0.00 | 87 | 1010.8 |
| 20260508015937 | 63 | 90 | 2.0 | 4.0 | 0.00 | 0.01 | 0.00 | 87 | 1010.7 |
| 20260508015543 | 63 | 68 | 4.0 | 7.0 | 0.00 | 0.01 | 0.00 | 87 | 1010.8 |
| 20260508015337 | 63 | 135 | 4.0 | 6.0 | 0.00 | 0.01 | 0.00 | 87 | 1010.6 |
| 20260508015138 | 63 | 112 | 6.0 | 9.0 | 0.00 | 0.01 | 0.00 | 87 | 1010.8 |
| 20260508014937 | 67 | 292 | 2.0 | 4.0 | 0.00 | 0.00 | 0.00 | 42 | 1016.9 |
| 20260508014543 | 63 | 112 | 3.0 | 4.0 | 0.00 | 0.01 | 0.00 | 87 | 1010.6 |
| 20260508014336 | 63 | 90 | 5.0 | 11.0 | 0.00 | 0.01 | 0.00 | 87 | 1010.6 |
| 20260508014138 | 63 | 112 | 5.0 | 8.0 | 0.00 | 0.01 | 0.00 | 87 | 1010.6 |
| 20260508013938 | 63 | 68 | 4.0 | 6.0 | 0.00 | 0.01 | 0.00 | 87 | 1010.8 |
| 20260508013737 | 63 | 90 | 5.0 | 8.0 | 0.00 | 0.01 | 0.00 | 87 | 1010.7 |
| 20260508013542 | 63 | 90 | 3.0 | 6.0 | 0.00 | 0.01 | 0.00 | 86 | 1010.7 |
| 20260508013138 | 63 | 90 | 6.0 | 8.0 | 0.00 | 0.01 | 0.00 | 86 | 1010.8 |
| 20260508012737 | 63 | 135 | 5.0 | 9.0 | 0.00 | 0.01 | 0.00 | 86 | 1010.8 |
| 20260508012338 | 63 | 68 | 4.0 | 8.0 | 0.00 | 0.01 | 0.00 | 86 | 1010.9 |
| 20260508012138 | 63 | 90 | 3.0 | 6.0 | 0.00 | 0.01 | 0.00 | 86 | 1011.0 |
| 20260508011938 | 63 | 90 | 5.0 | 8.0 | 0.00 | 0.01 | 0.00 | 86 | 1010.8 |
| 20260508011544 | 63 | 90 | 4.0 | 7.0 | 0.00 | 0.01 | 0.00 | 86 | 1011.1 |
| 20260508011337 | 63 | 90 | 4.0 | 6.0 | 0.00 | 0.01 | 0.00 | 86 | 1010.9 |
| 20260508011136 | 63 | 90 | 5.0 | 8.0 | 0.00 | 0.01 | 0.00 | 86 | 1011.2 |
| 20260508010938 | 63 | 68 | 4.0 | 6.0 | 0.00 | 0.01 | 0.00 | 86 | 1011.2 |
| 20260508010738 | 63 | 90 | 4.0 | 7.0 | 0.00 | 0.01 | 0.00 | 87 | 1011.2 |
| 20260508010541 | 63 | 90 | 4.0 | 8.0 | 0.00 | 0.01 | 0.00 | 86 | 1011.2 |
| 20260508010338 | 63 | 112 | 4.0 | 7.0 | 0.00 | 0.01 | 0.00 | 87 | 1011.3 |
| 20260508005938 | 63 | 90 | 4.0 | 7.0 | 0.00 | 0.01 | 0.00 | 87 | 1011.3 |
| 20260508005737 | 63 | 112 | 4.0 | 6.0 | 0.00 | 0.01 | 0.00 | 87 | 1011.2 |
| 20260508005544 | 63 | 112 | 4.0 | 6.0 | 0.00 | 0.01 | 0.00 | 87 | 1011.1 |
| 20260508005337 | 63 | 90 | 3.0 | 6.0 | 0.00 | 0.01 | 0.00 | 87 | 1011.1 |
| 20260508005137 | 63 | 90 | 2.0 | 4.0 | 0.00 | 0.01 | 0.00 | 87 | 1011.1 |
| 20260508004936 | 63 | 90 | 4.0 | 6.0 | 0.00 | 0.01 | 0.00 | 87 | 1011.2 |
| 20260508004739 | 63 | 90 | 3.0 | 4.0 | 0.00 | 0.01 | 0.00 | 87 | 1011.3 |
| 20260508004543 | 62 | 112 | 3.0 | 6.0 | 0.00 | 0.01 | 0.00 | 87 | 1011.2 |
| 20260508004338 | 62 | 90 | 4.0 | 7.0 | 0.00 | 0.01 | 0.00 | 87 | 1011.1 |
| 20260508004138 | 62 | 68 | 2.0 | 4.0 | 0.00 | 0.02 | 0.00 | 87 | 1011.1 |
| 20260508003940 | 62 | 68 | 2.0 | 2.0 | 0.00 | 0.02 | 0.00 | 87 | 1011.0 |
| 20260508003736 | 62 | 68 | 3.0 | 4.0 | 0.00 | 0.02 | 0.00 | 87 | 1011.2 |
| 20260508003336 | 62 | 90 | 2.0 | 4.0 | 0.00 | 0.02 | 0.00 | 87 | 1011.1 |
| 20260508003137 | 62 | 90 | 3.0 | 4.0 | 0.00 | 0.03 | 0.00 | 87 | 1011.3 |
| 20260508002936 | 62 | 90 | 2.0 | 4.0 | 0.00 | 0.03 | 0.00 | 87 | 1011.2 |
| 20260508002736 | 62 | 68 | 4.0 | 6.0 | 0.00 | 0.03 | 0.00 | 87 | 1011.3 |
| 20260508002543 | 62 | 45 | 2.0 | 4.0 | 0.00 | 0.03 | 0.00 | 87 | 1011.3 |
| 20260508002137 | 62 | 45 | 4.0 | 6.0 | 0.00 | 0.03 | 0.00 | 87 | 1011.3 |
| 20260508001937 | 62 | 90 | 5.0 | 8.0 | 0.00 | 0.03 | 0.00 | 87 | 1011.2 |
| 20260508001736 | 62 | 90 | 4.0 | 7.0 | 0.00 | 0.03 | 0.00 | 87 | 1011.5 |
| 20260508001544 | 62 | 90 | 3.0 | 4.0 | 0.00 | 0.03 | 0.00 | 87 | 1011.3 |
| 20260508001337 | 62 | 68 | 4.0 | 6.0 | 0.00 | 0.03 | 0.00 | 87 | 1011.5 |
| 20260508001140 | 62 | 112 | 5.0 | 8.0 | 0.00 | 0.03 | 0.00 | 87 | 1011.5 |
| 20260508000737 | 62 | 45 | 4.0 | 7.0 | 0.00 | 0.03 | 0.00 | 87 | 1011.7 |
| 20260508000541 | 62 | 68 | 4.0 | 6.0 | 0.00 | 0.03 | 0.00 | 87 | 1011.5 |
| 20260508000337 | 62 | 68 | 4.0 | 6.0 | 0.00 | 0.03 | 0.00 | 87 | 1011.6 |
| 20260508000137 | 62 | 68 | 4.0 | 6.0 | 0.00 | 0.03 | 0.00 | 87 | 1011.6 |
| 20260507235937 | 62 | 68 | 4.0 | 7.0 | 0.00 | 0.03 | 0.00 | 88 | 1011.8 |
| 20260507235738 | 62 | 90 | 4.0 | 7.0 | 0.00 | 0.03 | 0.00 | 88 | 1011.5 |
| 20260507235339 | 62 | 90 | 3.0 | 6.0 | 0.00 | 0.03 | 0.00 | 88 | 1011.7 |
| 20260507235140 | 62 | 112 | 2.0 | 4.0 | 0.00 | 0.03 | 0.00 | 88 | 1012.0 |
| 20260507234739 | 62 | 90 | 2.0 | 4.0 | 0.00 | 0.03 | 0.00 | 88 | 1011.8 |
| 20260507234543 | 62 | 90 | 3.0 | 4.0 | 0.00 | 0.03 | 0.00 | 88 | 1011.7 |
| 20260507233737 | 62 | 68 | 2.0 | 4.0 | 0.00 | 0.03 | 0.00 | 88 | 1012.1 |
| 20260507233542 | 62 | 45 | 2.0 | 2.0 | 0.00 | 0.03 | 0.00 | 88 | 1011.9 |
| 20260507233338 | 62 | 45 | 3.0 | 4.0 | 0.00 | 0.03 | 0.00 | 88 | 1012.2 |
| 20260507233139 | 62 | 22 | 2.0 | 2.0 | 0.00 | 0.03 | 0.00 | 88 | 1012.2 |
| 20260507232937 | 62 | 22 | 2.0 | 2.0 | 0.00 | 0.03 | 0.00 | 88 | 1012.2 |
| 20260507232737 | 62 | 45 | 1.0 | 2.0 | 0.00 | 0.03 | 0.00 | 88 | 1012.2 |
| 20260507232544 | 62 | 45 | 1.0 | 2.0 | 0.00 | 0.03 | 0.00 | 88 | 1012.2 |
| 20260507232138 | 62 | 45 | 2.0 | 4.0 | 0.00 | 0.03 | 0.00 | 88 | 1012.2 |
| 20260507231738 | 62 | 68 | 2.0 | 4.0 | 0.00 | 0.03 | 0.00 | 88 | 1012.3 |
| 20260507231548 | 62 | 68 | 3.0 | 4.0 | 0.00 | 0.03 | 0.00 | 87 | 1012.4 |
| 20260507231338 | 62 | 68 | 3.0 | 4.0 | 0.00 | 0.03 | 0.00 | 87 | 1012.4 |
| 20260507231138 | 62 | 68 | 2.0 | 4.0 | 0.00 | 0.03 | 0.00 | 87 | 1012.6 |
| 20260507230939 | 62 | 68 | 3.0 | 4.0 | 0.00 | 0.03 | 0.00 | 87 | 1012.5 |
| 20260507230737 | 62 | 90 | 2.0 | 2.0 | 0.00 | 0.03 | 0.00 | 87 | 1012.8 |
| 20260507230542 | 62 | 45 | 2.0 | 2.0 | 0.00 | 0.03 | 0.00 | 87 | 1012.7 |
| 20260507230338 | 62 | 68 | 2.0 | 4.0 | 0.00 | 0.03 | 0.00 | 87 | 1012.6 |
| 20260507230139 | 62 | 45 | 1.0 | 2.0 | 0.00 | 0.03 | 0.00 | 87 | 1012.7 |
| 20260507225737 | 62 | 45 | 2.0 | 4.0 | 0.00 | 0.03 | 0.00 | 87 | 1013.0 |
| 20260507225543 | 62 | 45 | 2.0 | 2.0 | 0.00 | 0.03 | 0.00 | 86 | 1012.9 |
| 20260507225139 | 62 | 45 | 3.0 | 4.0 | 0.00 | 0.03 | 0.00 | 86 | 1012.9 |
| 20260507224938 | 62 | 68 | 2.0 | 4.0 | 0.00 | 0.03 | 0.00 | 86 | 1012.8 |
| 20260507224738 | 62 | 45 | 2.0 | 2.0 | 0.00 | 0.03 | 0.00 | 86 | 1012.7 |
| 20260507224544 | 62 | 22 | 2.0 | 4.0 | 0.00 | 0.03 | 0.00 | 86 | 1012.9 |
| 20260507224338 | 62 | 68 | 2.0 | 4.0 | 0.00 | 0.03 | 0.00 | 86 | 1012.9 |
| 20260507223940 | 62 | 45 | 3.0 | 4.0 | 0.00 | 0.03 | 0.00 | 87 | 1013.2 |
| 20260507223737 | 62 | 45 | 2.0 | 4.0 | 0.00 | 0.03 | 0.00 | 87 | 1013.1 |
| 20260507223540 | 61 | 45 | 2.0 | 4.0 | 0.00 | 0.03 | 0.00 | 87 | 1013.1 |
| 20260507222939 | 61 | 22 | 2.0 | 4.0 | 0.00 | 0.03 | 0.00 | 87 | 1013.2 |
| 20260507222737 | 61 | 45 | 3.0 | 4.0 | 0.00 | 0.03 | 0.00 | 87 | 1013.1 |
| 20260507222545 | 61 | 45 | 2.0 | 2.0 | 0.00 | 0.03 | 0.00 | 87 | 1013.1 |
| 20260507222337 | 61 | 22 | 2.0 | 2.0 | 0.00 | 0.03 | 0.00 | 87 | 1013.3 |
| 20260507222139 | 61 | 22 | 1.0 | 2.0 | 0.00 | 0.03 | 0.00 | 87 | 1013.2 |
| 20260507221938 | 61 | 68 | 2.0 | 2.0 | 0.00 | 0.03 | 0.00 | 87 | 1013.4 |
| 20260507221737 | 61 | 45 | 2.0 | 2.0 | 0.00 | 0.04 | 0.00 | 87 | 1013.2 |
| 20260507221544 | 61 | 45 | 0.0 | 2.0 | 0.00 | 0.04 | 0.00 | 87 | 1013.3 |
| 20260507221338 | 61 | 45 | 1.0 | 2.0 | 0.00 | 0.04 | 0.00 | 87 | 1013.2 |
| 20260507220737 | 61 | 45 | 1.0 | 2.0 | 0.00 | 0.04 | 0.00 | 86 | 1013.1 |
| 20260507220541 | 61 | 45 | 1.0 | 2.0 | 0.00 | 0.04 | 0.00 | 86 | 1013.1 |
| 20260507220337 | 61 | 22 | 1.0 | 2.0 | 0.00 | 0.04 | 0.00 | 86 | 1013.2 |
| 20260507220229 | 61 | 22 | 1.0 | 2.0 | 0.00 | 0.04 | 0.04 | 86 | 1013.2 |
| 20260507215937 | 61 | 45 | 0.0 | 2.0 | 0.00 | 0.04 | 0.04 | 86 | 1013.4 |
| 20260507215737 | 61 | 68 | 0.0 | 2.0 | 0.00 | 0.04 | 0.04 | 86 | 1013.4 |
| 20260507215544 | 61 | 68 | 0.0 | 0.0 | 0.00 | 0.04 | 0.04 | 86 | 1013.3 |
| 20260507215138 | 61 | 90 | 1.0 | 2.0 | 0.00 | 0.04 | 0.04 | 86 | 1013.4 |
| 20260507214939 | 61 | 22 | 0.0 | 0.0 | 0.00 | 0.04 | 0.04 | 86 | 1013.2 |
| 20260507214737 | 61 | 22 | 0.0 | 0.0 | 0.00 | 0.04 | 0.04 | 86 | 1013.3 |
| 20260507214544 | 61 | 22 | 0.0 | 0.0 | 0.00 | 0.04 | 0.04 | 86 | 1013.3 |
| 20260507214339 | 61 | 22 | 0.0 | 0.0 | 0.00 | 0.04 | 0.04 | 86 | 1013.3 |
| 20260507214140 | 61 | 22 | 0.0 | 0.0 | 0.00 | 0.04 | 0.04 | 86 | 1013.1 |
| 20260507213939 | 61 | 68 | 1.0 | 2.0 | 0.00 | 0.04 | 0.04 | 86 | 1013.2 |
| 20260507213737 | 61 | 68 | 1.0 | 2.0 | 0.00 | 0.04 | 0.04 | 86 | 1013.3 |
| 20260507213543 | 61 | 68 | 2.0 | 2.0 | 0.00 | 0.04 | 0.04 | 86 | 1013.2 |
| 20260507213338 | 61 | 68 | 2.0 | 2.0 | 0.00 | 0.05 | 0.04 | 86 | 1013.1 |
| 20260507212938 | 61 | 112 | 2.0 | 2.0 | 0.00 | 0.05 | 0.04 | 85 | 1013.4 |
| 20260507212737 | 61 | 68 | 2.0 | 2.0 | 0.00 | 0.05 | 0.04 | 85 | 1013.2 |
| 20260507212545 | 61 | 68 | 2.0 | 2.0 | 0.00 | 0.05 | 0.04 | 86 | 1013.3 |
| 20260507212338 | 61 | 90 | 2.0 | 4.0 | 0.00 | 0.05 | 0.04 | 85 | 1013.3 |
| 20260507212139 | 61 | 68 | 1.0 | 2.0 | 0.00 | 0.05 | 0.04 | 85 | 1013.4 |
| 20260507211937 | 61 | 68 | 0.0 | 2.0 | 0.00 | 0.05 | 0.04 | 85 | 1013.3 |
| 20260507211737 | 61 | 68 | 2.0 | 2.0 | 0.00 | 0.05 | 0.04 | 85 | 1013.5 |
| 20260507211544 | 61 | 45 | 2.0 | 2.0 | 0.00 | 0.05 | 0.04 | 85 | 1013.3 |
| 20260507211339 | 61 | 68 | 0.0 | 2.0 | 0.00 | 0.05 | 0.04 | 85 | 1013.4 |
| 20260507211139 | 61 | 45 | 0.0 | 2.0 | 0.00 | 0.05 | 0.04 | 85 | 1013.4 |
| 20260507210737 | 60 | 45 | 1.0 | 2.0 | 0.00 | 0.05 | 0.04 | 85 | 1013.3 |
| 20260507210542 | 60 | 22 | 0.0 | 2.0 | 0.00 | 0.05 | 0.04 | 85 | 1013.4 |
| 20260507210138 | 60 | 22 | 1.0 | 2.0 | 0.00 | 0.05 | 0.04 | 85 | 1013.5 |
| 20260507205937 | 61 | 0 | 0.0 | 0.0 | 0.00 | 0.05 | 0.04 | 84 | 1013.5 |
| 20260507205737 | 61 | 0 | 0.0 | 0.0 | 0.00 | 0.05 | 0.04 | 84 | 1013.5 |
| 20260507205544 | 61 | 22 | 0.0 | 0.0 | 0.00 | 0.05 | 0.04 | 84 | 1013.6 |
| 20260507205338 | 61 | 22 | 0.0 | 2.0 | 0.00 | 0.05 | 0.04 | 84 | 1013.4 |
| 20260507205138 | 61 | 22 | 0.0 | 0.0 | 0.00 | 0.05 | 0.04 | 84 | 1013.4 |
| 20260507204937 | 61 | 22 | 0.0 | 2.0 | 0.00 | 0.05 | 0.04 | 84 | 1013.6 |
| 20260507204737 | 61 | 22 | 0.0 | 2.0 | 0.00 | 0.05 | 0.04 | 84 | 1013.5 |
| 20260507204338 | 61 | 22 | 0.0 | 0.0 | 0.00 | 0.05 | 0.04 | 83 | 1013.6 |
| 20260507204140 | 61 | 0 | 1.0 | 2.0 | 0.00 | 0.05 | 0.04 | 83 | 1013.5 |
| 20260507203939 | 61 | 22 | 2.0 | 2.0 | 0.00 | 0.05 | 0.04 | 83 | 1013.6 |
| 20260507203737 | 61 | 22 | 1.0 | 2.0 | 0.00 | 0.05 | 0.04 | 83 | 1013.6 |
| 20260507203337 | 61 | 22 | 2.0 | 2.0 | 0.00 | 0.05 | 0.04 | 83 | 1013.7 |
| 20260507202938 | 61 | 22 | 1.0 | 2.0 | 0.00 | 0.05 | 0.04 | 82 | 1013.7 |
| 20260507202738 | 61 | 0 | 1.0 | 2.0 | 0.00 | 0.05 | 0.04 | 82 | 1013.6 |
| 20260507202545 | 62 | 45 | 1.0 | 2.0 | 0.00 | 0.05 | 0.04 | 82 | 1013.7 |
| 20260507202339 | 62 | 22 | 1.0 | 2.0 | 0.00 | 0.05 | 0.04 | 82 | 1013.6 |
| 20260507202139 | 62 | 45 | 2.0 | 4.0 | 0.00 | 0.05 | 0.04 | 82 | 1013.7 |
| 20260507201936 | 62 | 68 | 2.0 | 4.0 | 0.00 | 0.05 | 0.04 | 81 | 1013.6 |
| 20260507201739 | 62 | 22 | 2.0 | 2.0 | 0.00 | 0.05 | 0.04 | 81 | 1013.7 |
| 20260507201544 | 62 | 68 | 2.0 | 2.0 | 0.00 | 0.05 | 0.04 | 81 | 1013.7 |
| 20260507201139 | 62 | 68 | 2.0 | 2.0 | 0.00 | 0.05 | 0.04 | 81 | 1013.7 |
| 20260507200939 | 62 | 68 | 2.0 | 2.0 | 0.00 | 0.05 | 0.04 | 81 | 1013.9 |
| 20260507200738 | 62 | 90 | 2.0 | 4.0 | 0.00 | 0.05 | 0.04 | 81 | 1013.6 |
| 20260507200541 | 62 | 68 | 1.0 | 2.0 | 0.00 | 0.05 | 0.04 | 81 | 1013.7 |
| 20260507200138 | 62 | 90 | 2.0 | 4.0 | 0.00 | 0.05 | 0.04 | 80 | 1013.9 |
| 20260507195544 | 62 | 90 | 2.0 | 2.0 | 0.00 | 0.05 | 0.04 | 79 | 1014.0 |
| 20260507195338 | 62 | 68 | 2.0 | 4.0 | 0.00 | 0.05 | 0.04 | 79 | 1013.9 |
| 20260507195139 | 62 | 45 | 2.0 | 2.0 | 0.00 | 0.05 | 0.04 | 78 | 1014.0 |
| 20260507194937 | 62 | 68 | 3.0 | 4.0 | 0.00 | 0.05 | 0.04 | 78 | 1013.8 |
| 20260507194544 | 62 | 90 | 3.0 | 4.0 | 0.00 | 0.05 | 0.04 | 78 | 1013.9 |
| 20260507194338 | 62 | 90 | 3.0 | 4.0 | 0.00 | 0.05 | 0.04 | 78 | 1014.0 |
| 20260507194138 | 62 | 112 | 2.0 | 4.0 | 0.00 | 0.05 | 0.04 | 78 | 1014.1 |
| 20260507193940 | 62 | 68 | 3.0 | 6.0 | 0.00 | 0.05 | 0.04 | 78 | 1013.8 |
| 20260507193738 | 62 | 112 | 3.0 | 4.0 | 0.00 | 0.05 | 0.04 | 78 | 1013.9 |
| 20260507193338 | 62 | 90 | 2.0 | 2.0 | 0.00 | 0.05 | 0.04 | 78 | 1013.9 |
| 20260507193139 | 62 | 112 | 2.0 | 2.0 | 0.00 | 0.05 | 0.04 | 79 | 1013.9 |
| 20260507192938 | 62 | 90 | 2.0 | 4.0 | 0.00 | 0.05 | 0.04 | 79 | 1014.0 |
| 20260507192543 | 62 | 90 | 2.0 | 2.0 | 0.00 | 0.05 | 0.04 | 80 | 1013.7 |
| 20260507192139 | 62 | 90 | 2.0 | 2.0 | 0.00 | 0.05 | 0.04 | 80 | 1013.6 |
| 20260507191738 | 62 | 68 | 1.0 | 2.0 | 0.00 | 0.05 | 0.04 | 80 | 1013.7 |
| 20260507191339 | 62 | 90 | 1.0 | 2.0 | 0.00 | 0.05 | 0.04 | 80 | 1013.8 |
| 20260507191139 | 62 | 45 | 2.0 | 4.0 | 0.00 | 0.05 | 0.04 | 80 | 1013.9 |
| 20260507190939 | 62 | 68 | 1.0 | 2.0 | 0.00 | 0.05 | 0.04 | 80 | 1013.8 |
| 20260507190737 | 62 | 90 | 2.0 | 2.0 | 0.00 | 0.05 | 0.04 | 80 | 1013.8 |
| 20260507190337 | 62 | 90 | 2.0 | 4.0 | 0.00 | 0.05 | 0.04 | 80 | 1013.7 |
| 20260507190141 | 62 | 90 | 0.0 | 2.0 | 0.00 | 0.05 | 0.04 | 80 | 1013.9 |
| 20260507185938 | 62 | 112 | 2.0 | 2.0 | 0.00 | 0.05 | 0.04 | 80 | 1013.8 |
| 20260507185738 | 62 | 90 | 2.0 | 2.0 | 0.00 | 0.05 | 0.04 | 80 | 1013.7 |
| 20260507185544 | 62 | 90 | 2.0 | 2.0 | 0.00 | 0.05 | 0.04 | 80 | 1013.5 |
| 20260507185339 | 62 | 90 | 2.0 | 2.0 | 0.00 | 0.05 | 0.04 | 80 | 1013.6 |
| 20260507185140 | 62 | 68 | 2.0 | 2.0 | 0.00 | 0.05 | 0.04 | 79 | 1013.6 |
| 20260507184938 | 62 | 68 | 2.0 | 4.0 | 0.00 | 0.05 | 0.04 | 79 | 1013.5 |
| 20260507184737 | 62 | 112 | 2.0 | 4.0 | 0.00 | 0.05 | 0.04 | 79 | 1013.5 |
| 20260507184544 | 62 | 112 | 2.0 | 4.0 | 0.00 | 0.05 | 0.04 | 79 | 1013.5 |
| 20260507184338 | 62 | 90 | 2.0 | 4.0 | 0.00 | 0.05 | 0.04 | 78 | 1013.6 |
| 20260507183939 | 63 | 90 | 3.0 | 4.0 | 0.00 | 0.05 | 0.04 | 78 | 1013.6 |
| 20260507183739 | 63 | 90 | 3.0 | 4.0 | 0.00 | 0.05 | 0.04 | 77 | 1013.6 |
| 20260507183541 | 63 | 90 | 2.0 | 4.0 | 0.00 | 0.05 | 0.04 | 77 | 1013.6 |
| 20260507183338 | 63 | 112 | 2.0 | 2.0 | 0.00 | 0.05 | 0.04 | 76 | 1013.4 |
| 20260507183138 | 63 | 112 | 2.0 | 4.0 | 0.00 | 0.05 | 0.04 | 76 | 1013.6 |
| 20260507182938 | 63 | 112 | 2.0 | 4.0 | 0.00 | 0.05 | 0.04 | 76 | 1013.3 |
| 20260507182737 | 63 | 90 | 3.0 | 4.0 | 0.00 | 0.05 | 0.04 | 75 | 1013.4 |
| 20260507182544 | 63 | 112 | 3.0 | 6.0 | 0.00 | 0.05 | 0.04 | 74 | 1013.3 |
| 20260507182338 | 64 | 112 | 2.0 | 4.0 | 0.00 | 0.05 | 0.04 | 74 | 1013.5 |
| 20260507182140 | 63 | 90 | 2.0 | 4.0 | 0.00 | 0.05 | 0.04 | 74 | 1013.4 |
| 20260507181939 | 63 | 112 | 4.0 | 7.0 | 0.00 | 0.05 | 0.04 | 74 | 1013.4 |
| 20260507181737 | 63 | 112 | 4.0 | 4.0 | 0.00 | 0.05 | 0.04 | 74 | 1013.4 |
| 20260507181544 | 63 | 112 | 3.0 | 6.0 | 0.00 | 0.05 | 0.04 | 74 | 1013.5 |
| 20260507181339 | 63 | 112 | 4.0 | 6.0 | 0.00 | 0.05 | 0.04 | 74 | 1013.4 |
| 20260507181139 | 63 | 90 | 3.0 | 6.0 | 0.00 | 0.05 | 0.04 | 74 | 1013.6 |
| 20260507180939 | 63 | 112 | 4.0 | 4.0 | 0.00 | 0.05 | 0.04 | 74 | 1013.6 |
| 20260507180738 | 63 | 112 | 3.0 | 6.0 | 0.00 | 0.05 | 0.04 | 74 | 1013.7 |
| 20260507180541 | 64 | 135 | 3.0 | 4.0 | 0.00 | 0.05 | 0.04 | 75 | 1013.7 |
| 20260507180338 | 64 | 135 | 3.0 | 4.0 | 0.00 | 0.05 | 0.04 | 75 | 1013.8 |
| 20260507175938 | 64 | 135 | 5.0 | 8.0 | 0.00 | 0.05 | 0.04 | 75 | 1013.8 |
| 20260507175545 | 64 | 112 | 4.0 | 9.0 | 0.00 | 0.05 | 0.04 | 75 | 1013.7 |
| 20260507175137 | 64 | 135 | 3.0 | 4.0 | 0.00 | 0.05 | 0.04 | 74 | 1013.6 |
| 20260507174938 | 64 | 90 | 3.0 | 6.0 | 0.00 | 0.05 | 0.04 | 74 | 1013.6 |
| 20260507174737 | 64 | 180 | 2.0 | 4.0 | 0.00 | 0.05 | 0.04 | 74 | 1013.6 |
| 20260507174543 | 64 | 158 | 4.0 | 7.0 | 0.00 | 0.05 | 0.04 | 74 | 1013.6 |
| 20260507174338 | 64 | 202 | 4.0 | 7.0 | 0.00 | 0.05 | 0.04 | 74 | 1013.4 |
| 20260507174140 | 64 | 90 | 4.0 | 6.0 | 0.00 | 0.05 | 0.04 | 74 | 1013.6 |
| 20260507173941 | 64 | 180 | 3.0 | 4.0 | 0.00 | 0.05 | 0.04 | 74 | 1013.5 |
| 20260507173738 | 64 | 202 | 2.0 | 2.0 | 0.00 | 0.05 | 0.04 | 73 | 1013.5 |
| 20260507173338 | 64 | 112 | 3.0 | 4.0 | 0.00 | 0.05 | 0.04 | 73 | 1013.5 |
| 20260507173140 | 64 | 112 | 3.0 | 4.0 | 0.00 | 0.05 | 0.04 | 73 | 1013.4 |
| 20260507172937 | 64 | 180 | 2.0 | 4.0 | 0.00 | 0.05 | 0.04 | 73 | 1013.6 |
| 20260507172737 | 65 | 90 | 3.0 | 4.0 | 0.00 | 0.05 | 0.04 | 73 | 1013.4 |
| 20260507172544 | 65 | 180 | 2.0 | 4.0 | 0.00 | 0.05 | 0.04 | 73 | 1013.4 |
| 20260507172140 | 65 | 112 | 2.0 | 6.0 | 0.00 | 0.05 | 0.04 | 72 | 1013.5 |
| 20260507171938 | 65 | 90 | 2.0 | 2.0 | 0.00 | 0.05 | 0.04 | 71 | 1013.4 |
| 20260507171544 | 65 | 135 | 2.0 | 4.0 | 0.00 | 0.05 | 0.04 | 71 | 1013.5 |
| 20260507171139 | 65 | 158 | 5.0 | 8.0 | 0.00 | 0.05 | 0.04 | 70 | 1013.5 |
| 20260507170940 | 65 | 90 | 1.0 | 2.0 | 0.00 | 0.05 | 0.04 | 71 | 1013.5 |
| 20260507170738 | 65 | 135 | 2.0 | 2.0 | 0.00 | 0.05 | 0.04 | 70 | 1013.5 |
| 20260507170543 | 65 | 135 | 3.0 | 6.0 | 0.00 | 0.05 | 0.04 | 70 | 1013.6 |
| 20260507170338 | 65 | 180 | 3.0 | 7.0 | 0.00 | 0.05 | 0.04 | 69 | 1013.7 |
| 20260507170139 | 65 | 135 | 4.0 | 6.0 | 0.00 | 0.05 | 0.04 | 69 | 1013.7 |
| 20260507165938 | 65 | 90 | 4.0 | 6.0 | 0.00 | 0.05 | 0.04 | 70 | 1013.6 |
| 20260507165738 | 65 | 90 | 4.0 | 4.0 | 0.00 | 0.05 | 0.04 | 71 | 1013.7 |
| 20260507165339 | 65 | 135 | 2.0 | 6.0 | 0.00 | 0.05 | 0.04 | 70 | 1013.8 |
| 20260507165139 | 65 | 135 | 4.0 | 6.0 | 0.00 | 0.05 | 0.04 | 70 | 1013.8 |
| 20260507164937 | 65 | 112 | 4.0 | 8.0 | 0.00 | 0.05 | 0.04 | 70 | 1013.8 |
| 20260507164737 | 65 | 135 | 2.0 | 4.0 | 0.00 | 0.05 | 0.04 | 71 | 1013.6 |
| 20260507164545 | 65 | 90 | 3.0 | 4.0 | 0.00 | 0.05 | 0.04 | 71 | 1013.8 |
| 20260507164338 | 65 | 90 | 4.0 | 6.0 | 0.00 | 0.05 | 0.04 | 71 | 1013.8 |
| 20260507164139 | 65 | 112 | 4.0 | 6.0 | 0.00 | 0.05 | 0.04 | 71 | 1013.7 |
| 20260507163750 | 65 | 135 | 4.0 | 8.0 | 0.00 | 0.05 | 0.04 | 70 | 1013.7 |
| 20260507163542 | 65 | 112 | 4.0 | 6.0 | 0.00 | 0.05 | 0.04 | 70 | 1013.7 |
| 20260507163140 | 65 | 112 | 6.0 | 9.0 | 0.00 | 0.05 | 0.04 | 70 | 1013.8 |
| 20260507162738 | 66 | 135 | 6.0 | 8.0 | 0.00 | 0.05 | 0.04 | 70 | 1013.8 |
| 20260507162546 | 66 | 112 | 5.0 | 7.0 | 0.00 | 0.05 | 0.04 | 70 | 1013.6 |
| 20260507162339 | 66 | 90 | 3.0 | 4.0 | 0.00 | 0.05 | 0.04 | 70 | 1013.7 |
| 20260507162138 | 66 | 135 | 3.0 | 6.0 | 0.00 | 0.05 | 0.04 | 69 | 1013.7 |
| 20260507161939 | 66 | 112 | 3.0 | 6.0 | 0.00 | 0.05 | 0.04 | 69 | 1013.8 |
| 20260507161545 | 66 | 112 | 2.0 | 4.0 | 0.00 | 0.05 | 0.04 | 68 | 1013.9 |
| 20260507161338 | 66 | 112 | 4.0 | 7.0 | 0.00 | 0.05 | 0.04 | 67 | 1013.7 |
| 20260507160940 | 67 | 112 | 4.0 | 4.0 | 0.00 | 0.05 | 0.04 | 66 | 1013.8 |
| 20260507160737 | 67 | 135 | 5.0 | 8.0 | 0.00 | 0.05 | 0.04 | 66 | 1013.8 |
| 20260507160542 | 67 | 180 | 3.0 | 6.0 | 0.00 | 0.05 | 0.04 | 65 | 1013.9 |
| 20260507160338 | 67 | 158 | 3.0 | 7.0 | 0.00 | 0.05 | 0.04 | 66 | 1013.8 |
| 20260507160140 | 67 | 158 | 4.0 | 4.0 | 0.00 | 0.05 | 0.04 | 66 | 1013.9 |
| 20260507155938 | 67 | 135 | 2.0 | 4.0 | 0.00 | 0.05 | 0.04 | 66 | 1013.9 |
| 20260507155738 | 67 | 158 | 2.0 | 2.0 | 0.00 | 0.05 | 0.04 | 66 | 1013.7 |
| 20260507155545 | 67 | 90 | 4.0 | 7.0 | 0.00 | 0.05 | 0.04 | 65 | 1013.5 |
| 20260507155338 | 67 | 112 | 3.0 | 4.0 | 0.00 | 0.05 | 0.04 | 65 | 1013.6 |
| 20260507155139 | 67 | 202 | 2.0 | 4.0 | 0.00 | 0.05 | 0.04 | 64 | 1013.6 |
| 20260507154938 | 67 | 112 | 3.0 | 7.0 | 0.00 | 0.05 | 0.04 | 64 | 1013.7 |
| 20260507154737 | 67 | 112 | 4.0 | 7.0 | 0.00 | 0.05 | 0.04 | 63 | 1013.7 |
| 20260507154544 | 67 | 180 | 4.0 | 6.0 | 0.00 | 0.05 | 0.04 | 63 | 1013.6 |
| 20260507154338 | 68 | 112 | 3.0 | 4.0 | 0.00 | 0.05 | 0.04 | 62 | 1013.5 |
| 20260507154139 | 68 | 112 | 4.0 | 6.0 | 0.00 | 0.05 | 0.04 | 63 | 1013.5 |
| 20260507153939 | 68 | 112 | 4.0 | 8.0 | 0.00 | 0.05 | 0.04 | 60 | 1013.3 |
| 20260507153738 | 68 | 135 | 3.0 | 6.0 | 0.00 | 0.05 | 0.04 | 61 | 1013.5 |
| 20260507153541 | 68 | 180 | 5.0 | 9.0 | 0.00 | 0.05 | 0.04 | 61 | 1013.3 |
| 20260507153339 | 68 | 135 | 4.0 | 8.0 | 0.00 | 0.05 | 0.04 | 61 | 1013.5 |
| 20260507153138 | 68 | 135 | 5.0 | 8.0 | 0.00 | 0.05 | 0.04 | 59 | 1013.5 |
| 20260507152938 | 68 | 112 | 4.0 | 6.0 | 0.00 | 0.05 | 0.04 | 59 | 1013.5 |
| 20260507152738 | 68 | 158 | 4.0 | 8.0 | 0.00 | 0.05 | 0.04 | 60 | 1013.6 |
| 20260507152338 | 68 | 90 | 4.0 | 7.0 | 0.00 | 0.05 | 0.04 | 59 | 1013.5 |
| 20260507152138 | 68 | 180 | 3.0 | 4.0 | 0.00 | 0.05 | 0.04 | 61 | 1013.7 |
| 20260507151938 | 68 | 135 | 6.0 | 9.0 | 0.00 | 0.05 | 0.04 | 61 | 1013.7 |
| 20260507151544 | 68 | 112 | 4.0 | 9.0 | 0.00 | 0.05 | 0.04 | 59 | 1013.6 |
| 20260507151137 | 68 | 158 | 4.0 | 7.0 | 0.00 | 0.05 | 0.04 | 60 | 1013.5 |
| 20260507150941 | 69 | 158 | 6.0 | 7.0 | 0.00 | 0.05 | 0.04 | 60 | 1013.6 |
| 20260507150738 | 69 | 180 | 6.0 | 13.0 | 0.00 | 0.05 | 0.04 | 59 | 1013.6 |
| 20260507150541 | 69 | 135 | 5.0 | 8.0 | 0.00 | 0.05 | 0.04 | 59 | 1013.6 |
| 20260507150138 | 69 | 158 | 4.0 | 7.0 | 0.00 | 0.05 | 0.04 | 59 | 1013.8 |
| 20260507145938 | 69 | 180 | 5.0 | 11.0 | 0.00 | 0.05 | 0.04 | 57 | 1013.7 |
| 20260507145738 | 69 | 158 | 4.0 | 8.0 | 0.00 | 0.05 | 0.04 | 56 | 1013.7 |
| 20260507145546 | 69 | 202 | 3.0 | 7.0 | 0.00 | 0.05 | 0.04 | 58 | 1013.6 |
| 20260507145339 | 69 | 225 | 6.0 | 9.0 | 0.00 | 0.05 | 0.04 | 58 | 1013.8 |
| 20260507145139 | 68 | 112 | 4.0 | 8.0 | 0.00 | 0.05 | 0.04 | 58 | 1013.9 |
| 20260507144937 | 68 | 112 | 4.0 | 7.0 | 0.00 | 0.05 | 0.04 | 59 | 1013.7 |
| 20260507144740 | 68 | 180 | 5.0 | 11.0 | 0.00 | 0.05 | 0.04 | 59 | 1013.8 |
| 20260507144546 | 68 | 90 | 8.0 | 14.0 | 0.00 | 0.05 | 0.04 | 59 | 1014.1 |
| 20260507144337 | 68 | 90 | 8.0 | 13.0 | 0.00 | 0.05 | 0.04 | 59 | 1014.2 |
| 20260507144138 | 69 | 112 | 6.0 | 11.0 | 0.00 | 0.05 | 0.04 | 59 | 1014.3 |
| 20260507143940 | 69 | 180 | 5.0 | 8.0 | 0.00 | 0.05 | 0.04 | 59 | 1013.9 |
| 20260507143541 | 69 | 135 | 4.0 | 8.0 | 0.00 | 0.05 | 0.04 | 58 | 1013.9 |
| 20260507143336 | 69 | 135 | 6.0 | 9.0 | 0.00 | 0.05 | 0.04 | 57 | 1013.9 |
| 20260507142737 | 69 | 112 | 7.0 | 11.0 | 0.00 | 0.05 | 0.04 | 58 | 1013.8 |
| 20260507142545 | 69 | 90 | 4.0 | 8.0 | 0.00 | 0.05 | 0.04 | 59 | 1013.7 |
| 20260507142337 | 69 | 135 | 7.0 | 9.0 | 0.00 | 0.05 | 0.04 | 60 | 1013.8 |
| 20260507142138 | 70 | 158 | 7.0 | 11.0 | 0.00 | 0.05 | 0.04 | 59 | 1013.9 |
| 20260507141938 | 69 | 158 | 3.0 | 4.0 | 0.00 | 0.05 | 0.04 | 63 | 1014.0 |
| 20260507141738 | 69 | 90 | 6.0 | 8.0 | 0.00 | 0.05 | 0.04 | 62 | 1014.0 |
| 20260507141545 | 69 | 158 | 3.0 | 6.0 | 0.00 | 0.05 | 0.04 | 64 | 1013.9 |